Offutt AFB, NE

8:53 PM CST on February 22, 2017 (GMT -0600)
Offutt Air Force Base

Weather History for KOFF - July, 2013

Change the Weather History Date:

Thursday, July 18, 2013

  Actual Average Record
Temperature  
Mean Temperature 82 °F -  
Max Temperature 95 °F 85 °F 99 °F (2007)
Min Temperature 70 °F 67 °F 56 °F (2014)
Cooling Degree Days 17    
Growing Degree Days 32 (Base 50)    
Moisture  
Dew Point 69 °F    
Average Humidity 67    
Maximum Humidity 100    
Minimum Humidity 38    
Precipitation  
Precipitation 0.00 in - - ()
Sea Level Pressure  
Sea Level Pressure 30.06 in    
Wind  
Wind Speed 7 mph (South)    
Max Wind Speed 20 mph    
Max Gust Speed 25 mph    
Visibility 10 miles    
Events      
Averages and records for this station are not official NWS values.
T = Trace of Precipitation, MM = Missing Value Source: NWS Daily Summary

Daily Weather History Graph

Daily Weather History Graph

Search for Another Location

Airport or City:

Trip Planner

Search our weather history database for the weather conditions in past years. The results will help you decide how hot, cold, wet, or windy it might be!

Date:

Astronomy

Jul. 18, 2013 Rise Set
Actual Time 6:06 AM CDT 8:52 PM CDT
Civil Twilight 5:34 AM CDT 9:24 PM CDT
Nautical Twilight 4:53 AM CDT 10:05 PM CDT
Astronomical Twilight 4:07 AM CDT 10:51 PM CDT
Moon 4:50 PM CDT (7/18) 1:58 AM CDT (7/18)
Length of Visible Light 15h 50m
Length of Day
14h 45m
Waxing Gibbous, 77% of the Moon is Illuminated
Jul 18
Waxing Gibbous
Jul 22
Full
Jul 29
Last Quarter
Aug 6
New
Aug 14
First Quarter

Hourly Weather History & Observations

Time (CDT) Temp. Heat Index Dew Point Humidity Pressure Visibility Wind Dir Wind Speed Gust Speed Precip Events Conditions
12:58 AM 75.2 °F - 71.4 °F 88% 30.17 in 10.0 mi SSE 4.6 mph - N/A   Clear
1:58 AM 74.7 °F - 71.1 °F 88% 30.15 in 10.0 mi SE 4.6 mph - N/A   Clear
2:58 AM 70.9 °F - 70.2 °F 98% 30.16 in 10.0 mi SSE 2.3 mph - N/A   Clear
3:38 AM 71.6 °F - 71.6 °F 100% 30.17 in 9.0 mi North 1.2 mph - N/A   Clear
3:43 AM 71.6 °F - 71.6 °F 100% 30.17 in 9.0 mi NNE 1.2 mph - N/A   Clear
3:58 AM 71.8 °F - 70.5 °F 96% 30.14 in 10.0 mi ENE 2.3 mph - N/A   Clear
4:58 AM 72.5 °F - 70.5 °F 93% 30.14 in 10.0 mi SSE 2.3 mph - N/A   Clear
5:58 AM 73.4 °F - 69.1 °F 86% 30.14 in 10.0 mi South 3.5 mph - N/A   Clear
6:58 AM 72.9 °F - 68.9 °F 87% 30.14 in 10.0 mi SSE 4.6 mph - N/A   Clear
7:58 AM 76.5 °F - 69.1 °F 78% 30.13 in 10.0 mi South 6.9 mph - N/A   Clear
8:58 AM 80.6 °F 83.9 °F 70.2 °F 70% 30.12 in 10.0 mi South 5.8 mph - N/A   Clear
9:58 AM 84.9 °F 90.1 °F 71.2 °F 63% 30.11 in 10.0 mi South 9.2 mph - N/A   Clear
10:58 AM 88.3 °F 93.2 °F 69.6 °F 54% 30.09 in 10.0 mi SW 11.5 mph - N/A   Clear
11:58 AM 89.4 °F 93.1 °F 68.0 °F 49% 30.09 in 10.0 mi South 15.0 mph - N/A   Clear
12:58 PM 91.2 °F 95.5 °F 68.2 °F 47% 30.06 in 10.0 mi South 15.0 mph 19.6 mph N/A   Clear
1:58 PM 92.7 °F 95.8 °F 66.6 °F 42% 30.04 in 10.0 mi SW 13.8 mph 20.7 mph N/A   Clear
2:58 PM 93.7 °F 96.2 °F 65.7 °F 39% 30.03 in 10.0 mi SSW 19.6 mph 25.3 mph N/A   Clear
3:58 PM 94.6 °F 97.3 °F 65.3 °F 38% 29.99 in 10.0 mi SSW 16.1 mph 23.0 mph N/A   Clear
4:58 PM 94.8 °F 97.6 °F 65.7 °F 38% 29.97 in 10.0 mi SSW 13.8 mph 19.6 mph N/A   Clear
5:58 PM 93.7 °F 96.7 °F 66.0 °F 40% 29.95 in 10.0 mi SSW 12.7 mph - N/A   Clear
6:58 PM 92.8 °F 96.1 °F 66.9 °F 42% 29.93 in 10.0 mi SSW 10.4 mph - N/A   Clear
7:58 PM 89.8 °F 94.6 °F 69.6 °F 51% 29.93 in 10.0 mi South 8.1 mph - N/A   Clear
8:58 PM 85.5 °F 89.8 °F 69.6 °F 59% 29.93 in 10.0 mi South 6.9 mph - N/A   Clear
9:58 PM 83.5 °F 86.9 °F 68.9 °F 61% 29.93 in 10.0 mi South 6.9 mph - N/A   Clear
10:58 PM 82.2 °F 85.3 °F 68.4 °F 63% 29.94 in 10.0 mi South 9.2 mph - N/A   Clear
11:58 PM 82.0 °F 84.7 °F 67.5 °F 61% 29.93 in 10.0 mi SSW 9.2 mph - N/A   Clear